Time,TemperatureF,DewpointF,PressureIn,WindDirection,WindDirectionDegrees,WindSpeedMPH,WindSpeedGustMPH,Humidity,HourlyPrecipIn,Conditions,Clouds,dailyrainin,SoftwareType,DateUTC
2013-03-21 00:10:00,35.4,22.9,29.76,WNW,292,0.0,-999.0,60,-99.99,,,0.00,Acu-Link.com,2013-03-21 04:10:00,
2013-03-21 00:41:00,35.8,22.9,29.77,NNE,22,0.0,-999.0,59,-99.99,,,0.00,Acu-Link.com,2013-03-21 04:41:00,
2013-03-21 00:56:00,35.6,23.1,29.76,ESE,112,4.2,-999.0,60,-99.99,,,0.00,Acu-Link.com,2013-03-21 04:56:00,
2013-03-21 01:12:00,35.4,22.9,29.76,NW,315,3.2,-999.0,60,-99.99,,,0.00,Acu-Link.com,2013-03-21 05:12:00,
2013-03-21 01:27:00,35.1,23.4,29.77,NE,45,2.7,-999.0,62,-99.99,,,0.00,Acu-Link.com,2013-03-21 05:27:00,
2013-03-21 01:42:00,34.7,23.0,29.77,NNE,22,2.2,-999.0,62,-99.99,,,0.00,Acu-Link.com,2013-03-21 05:42:00,
2013-03-21 01:58:00,34.3,23.0,29.77,WNW,292,1.7,-999.0,63,-99.99,,,0.00,Acu-Link.com,2013-03-21 05:58:00,
2013-03-21 02:13:00,34.0,22.7,29.76,West,270,2.2,-999.0,63,-99.99,,,0.00,Acu-Link.com,2013-03-21 06:13:00,
2013-03-21 02:28:00,33.8,22.9,29.76,North,0,2.7,-999.0,64,-99.99,,,0.00,Acu-Link.com,2013-03-21 06:28:00,
2013-03-21 02:44:00,33.6,22.4,29.76,WNW,292,3.2,-999.0,63,-99.99,,,0.00,Acu-Link.com,2013-03-21 06:44:00,
2013-03-21 02:59:00,33.3,22.1,29.75,East,90,2.7,-999.0,63,-99.99,,,0.00,Acu-Link.com,2013-03-21 06:59:00,
2013-03-21 03:14:00,32.9,21.7,29.74,NNE,22,0.0,-999.0,63,-99.99,,,0.00,Acu-Link.com,2013-03-21 07:14:00,
2013-03-21 03:29:00,32.2,21.4,29.73,SW,225,0.0,-999.0,64,-99.99,,,0.00,Acu-Link.com,2013-03-21 07:29:00,
2013-03-21 03:45:00,31.8,21.0,29.73,ESE,112,2.2,-999.0,64,-99.99,,,0.00,Acu-Link.com,2013-03-21 07:45:00,
2013-03-21 04:00:00,31.8,17.9,29.73,WNW,292,1.7,-999.0,56,-99.99,,,0.00,Acu-Link.com,2013-03-21 08:00:00,
2013-03-21 04:15:00,32.0,17.7,29.73,WNW,292,2.2,-999.0,55,-99.99,,,0.00,Acu-Link.com,2013-03-21 08:15:00,
2013-03-21 04:30:00,31.3,17.0,29.72,SSW,202,0.0,-999.0,55,-99.99,,,0.00,Acu-Link.com,2013-03-21 08:30:00,
2013-03-21 04:46:00,30.9,16.7,29.72,NNW,337,4.2,-999.0,55,-99.99,,,0.00,Acu-Link.com,2013-03-21 08:46:00,
2013-03-21 05:16:00,30.2,16.4,29.72,WNW,292,2.7,-999.0,56,-99.99,,,0.00,Acu-Link.com,2013-03-21 09:16:00,
2013-03-21 05:31:00,29.7,16.8,29.73,WNW,292,0.0,-999.0,58,-99.99,,,0.00,Acu-Link.com,2013-03-21 09:31:00,
2013-03-21 05:47:00,28.9,16.8,29.72,North,0,1.7,-999.0,60,-99.99,,,0.00,Acu-Link.com,2013-03-21 09:47:00,
2013-03-21 06:02:00,28.9,17.9,29.73,NNE,22,1.1,-999.0,63,-99.99,,,0.00,Acu-Link.com,2013-03-21 10:02:00,
2013-03-21 06:17:00,29.1,18.8,29.73,ENE,67,1.7,-999.0,65,-99.99,,,0.00,Acu-Link.com,2013-03-21 10:17:00,
2013-03-21 06:33:00,28.8,19.2,29.73,East,90,3.2,-999.0,67,-99.99,,,0.00,Acu-Link.com,2013-03-21 10:33:00,
2013-03-21 06:48:00,28.8,19.2,29.73,ENE,67,0.0,-999.0,67,-99.99,,,0.00,Acu-Link.com,2013-03-21 10:48:00,
2013-03-21 07:03:00,28.8,19.6,29.74,ESE,112,0.0,-999.0,68,-99.99,,,0.00,Acu-Link.com,2013-03-21 11:03:00,
2013-03-21 07:19:00,28.6,18.7,29.74,NNE,22,0.0,-999.0,66,-99.99,,,0.00,Acu-Link.com,2013-03-21 11:19:00,
2013-03-21 07:34:00,28.6,18.0,29.74,East,90,0.0,-999.0,64,-99.99,,,0.00,Acu-Link.com,2013-03-21 11:34:00,
2013-03-21 07:49:00,28.8,17.8,29.73,NNE,22,1.7,-999.0,63,-99.99,,,0.00,Acu-Link.com,2013-03-21 11:49:00,
2013-03-21 08:04:00,29.3,17.5,29.73,East,90,2.2,-999.0,61,-99.99,,,0.00,Acu-Link.com,2013-03-21 12:04:00,
2013-03-21 08:19:00,29.8,17.2,29.74,East,90,2.2,-999.0,59,-99.99,,,0.00,Acu-Link.com,2013-03-21 12:19:00,
2013-03-21 08:35:00,30.2,16.8,29.74,North,0,1.7,-999.0,57,-99.99,,,0.00,Acu-Link.com,2013-03-21 12:35:00,
2013-03-21 08:50:00,30.4,17.0,29.74,NW,315,2.2,-999.0,57,-99.99,,,0.00,Acu-Link.com,2013-03-21 12:50:00,
2013-03-21 09:05:00,30.7,16.9,29.74,NNE,22,2.2,-999.0,56,-99.99,,,0.00,Acu-Link.com,2013-03-21 13:05:00,
2013-03-21 09:21:00,31.1,16.4,29.74,NE,45,1.1,-999.0,54,-99.99,,,0.00,Acu-Link.com,2013-03-21 13:21:00,
2013-03-21 09:36:00,31.6,16.5,29.74,ESE,112,2.2,-999.0,53,-99.99,,,0.00,Acu-Link.com,2013-03-21 13:36:00,
2013-03-21 09:52:00,30.9,15.8,29.73,ENE,67,2.7,-999.0,53,-99.99,,,0.00,Acu-Link.com,2013-03-21 13:52:00,
2013-03-21 10:07:00,31.3,15.3,29.73,SW,225,2.2,-999.0,51,-99.99,,,0.00,Acu-Link.com,2013-03-21 14:07:00,
2013-03-21 10:22:00,31.3,15.7,29.72,North,0,1.1,-999.0,52,-99.99,,,0.00,Acu-Link.com,2013-03-21 14:22:00,
2013-03-21 10:37:00,33.4,17.7,29.72,ESE,112,2.2,-999.0,52,-99.99,,,0.00,Acu-Link.com,2013-03-21 14:37:00,
2013-03-21 10:52:00,33.1,16.0,29.71,West,270,3.7,-999.0,49,-99.99,,,0.00,Acu-Link.com,2013-03-21 14:52:00,
2013-03-21 11:08:00,34.0,16.9,29.71,ENE,67,3.7,-999.0,49,-99.99,,,0.00,Acu-Link.com,2013-03-21 15:08:00,
2013-03-21 11:23:00,33.6,15.5,29.70,NNW,337,3.7,-999.0,47,-99.99,,,0.00,Acu-Link.com,2013-03-21 15:23:00,
2013-03-21 11:38:00,34.3,16.2,29.70,WNW,292,3.2,-999.0,47,-99.99,,,0.00,Acu-Link.com,2013-03-21 15:38:00,
2013-03-21 11:53:00,34.3,16.2,29.69,ENE,67,10.4,-999.0,47,-99.99,,,0.00,Acu-Link.com,2013-03-21 15:53:00,
2013-03-21 12:09:00,36.3,17.5,29.69,East,90,3.7,-999.0,46,-99.99,,,0.00,Acu-Link.com,2013-03-21 16:09:00,
2013-03-21 12:24:00,34.5,16.4,29.69,West,270,2.7,-999.0,47,-99.99,,,0.00,Acu-Link.com,2013-03-21 16:24:00,
2013-03-21 12:39:00,35.6,13.1,29.68,NW,315,7.3,-999.0,39,-99.99,,,0.00,Acu-Link.com,2013-03-21 16:39:00,
2013-03-21 12:54:00,34.9,13.6,29.68,West,270,6.3,-999.0,41,-99.99,,,0.00,Acu-Link.com,2013-03-21 16:54:00,
2013-03-21 13:09:00,35.1,13.8,29.67,North,0,4.7,-999.0,41,-99.99,,,0.00,Acu-Link.com,2013-03-21 17:09:00,
2013-03-21 13:24:00,34.5,17.8,29.68,West,270,8.9,-999.0,50,-99.99,,,0.00,Acu-Link.com,2013-03-21 17:24:00,
2013-03-21 13:40:00,34.3,16.7,29.67,WNW,292,5.8,-999.0,48,-99.99,,,0.00,Acu-Link.com,2013-03-21 17:40:00,
2013-03-21 14:10:00,34.9,15.2,29.66,NNW,337,7.3,-999.0,44,-99.99,,,0.00,Acu-Link.com,2013-03-21 18:10:00,
2013-03-21 14:41:00,36.9,16.0,29.65,WNW,292,5.3,-999.0,42,-99.99,,,0.00,Acu-Link.com,2013-03-21 18:41:00,
2013-03-21 14:56:00,36.0,14.0,29.64,WNW,292,9.9,-999.0,40,-99.99,,,0.00,Acu-Link.com,2013-03-21 18:56:00,
2013-03-21 15:12:00,36.5,12.1,29.64,NW,315,7.8,-999.0,36,-99.99,,,0.00,Acu-Link.com,2013-03-21 19:12:00,
2013-03-21 15:27:00,35.4,12.9,29.64,WNW,292,10.9,-999.0,39,-99.99,,,0.00,Acu-Link.com,2013-03-21 19:27:00,
2013-03-21 15:58:00,34.9,11.9,29.64,West,270,7.3,-999.0,38,-99.99,,,0.00,Acu-Link.com,2013-03-21 19:58:00,
2013-03-21 16:13:00,34.5,12.7,29.64,West,270,10.4,-999.0,40,-99.99,,,0.00,Acu-Link.com,2013-03-21 20:13:00,
2013-03-21 16:28:00,35.8,10.9,29.64,South,180,5.8,-999.0,35,-99.99,,,0.00,Acu-Link.com,2013-03-21 20:28:00,
2013-03-21 16:43:00,36.7,11.0,29.64,West,270,6.3,-999.0,34,-99.99,,,0.00,Acu-Link.com,2013-03-21 20:43:00,
2013-03-21 16:58:00,37.0,13.2,29.65,NE,45,12.5,-999.0,37,-99.99,,,0.00,Acu-Link.com,2013-03-21 20:58:00,
2013-03-21 17:13:00,35.8,12.7,29.65,WNW,292,8.3,-999.0,38,-99.99,,,0.00,Acu-Link.com,2013-03-21 21:13:00,
2013-03-21 17:28:00,34.0,12.2,29.65,North,0,6.8,-999.0,40,-99.99,,,0.00,Acu-Link.com,2013-03-21 21:28:00,
2013-03-21 17:43:00,33.4,12.3,29.67,NE,45,3.2,-999.0,41,-99.99,,,0.00,Acu-Link.com,2013-03-21 21:43:00,
2013-03-21 17:58:00,33.1,10.9,29.68,West,270,7.8,-999.0,39,-99.99,,,0.00,Acu-Link.com,2013-03-21 21:58:00,
2013-03-21 18:13:00,32.2,11.7,29.68,East,90,2.7,-999.0,42,-99.99,,,0.00,Acu-Link.com,2013-03-21 22:13:00,
2013-03-21 18:29:00,31.3,10.9,29.69,West,270,4.2,-999.0,42,-99.99,,,0.00,Acu-Link.com,2013-03-21 22:29:00,
2013-03-21 18:44:00,31.3,10.4,29.70,NE,45,7.3,-999.0,41,-99.99,,,0.00,Acu-Link.com,2013-03-21 22:44:00,
2013-03-21 18:59:00,30.2,10.4,29.71,SSE,157,3.2,-999.0,43,-99.99,,,0.00,Acu-Link.com,2013-03-21 22:59:00,
2013-03-21 19:14:00,29.7,10.0,29.72,NNE,22,2.2,-999.0,43,-99.99,,,0.00,Acu-Link.com,2013-03-21 23:14:00,
2013-03-21 19:30:00,29.1,9.9,29.73,NNE,22,4.2,-999.0,44,-99.99,,,0.00,Acu-Link.com,2013-03-21 23:30:00,
2013-03-21 19:45:00,28.6,10.0,29.73,North,0,3.2,-999.0,45,-99.99,,,0.00,Acu-Link.com,2013-03-21 23:45:00,
2013-03-21 20:00:00,28.4,9.8,29.74,NNW,337,6.3,-999.0,45,-99.99,,,0.00,Acu-Link.com,2013-03-22 00:00:00,
2013-03-21 20:15:00,28.4,10.3,29.74,WSW,247,4.7,-999.0,46,-99.99,,,0.00,Acu-Link.com,2013-03-22 00:15:00,
2013-03-21 20:31:00,28.0,10.4,29.75,WNW,292,2.2,-999.0,47,-99.99,,,0.00,Acu-Link.com,2013-03-22 00:31:00,
2013-03-21 20:46:00,27.7,10.6,29.75,WNW,292,2.2,-999.0,48,-99.99,,,0.00,Acu-Link.com,2013-03-22 00:46:00,
2013-03-21 21:01:00,27.3,10.7,29.76,West,270,2.7,-999.0,49,-99.99,,,0.00,Acu-Link.com,2013-03-22 01:01:00,
2013-03-21 21:17:00,27.0,10.9,29.76,SW,225,2.2,-999.0,50,-99.99,,,0.00,Acu-Link.com,2013-03-22 01:17:00,
2013-03-21 21:32:00,26.6,10.9,29.76,NNW,337,1.7,-999.0,51,-99.99,,,0.00,Acu-Link.com,2013-03-22 01:32:00,
2013-03-21 21:47:00,26.6,11.4,29.77,West,270,3.7,-999.0,52,-99.99,,,0.00,Acu-Link.com,2013-03-22 01:47:00,
2013-03-21 22:03:00,26.6,11.8,29.77,NE,45,1.1,-999.0,53,-99.99,,,0.00,Acu-Link.com,2013-03-22 02:03:00,
2013-03-21 22:18:00,27.5,12.6,29.77,NNW,337,2.2,-999.0,53,-99.99,,,0.00,Acu-Link.com,2013-03-22 02:18:00,
2013-03-21 22:33:00,27.7,12.8,29.77,West,270,5.8,-999.0,53,-99.99,,,0.00,Acu-Link.com,2013-03-22 02:33:00,
2013-03-21 22:48:00,27.9,13.0,29.77,West,270,5.8,-999.0,53,-99.99,,,0.00,Acu-Link.com,2013-03-22 02:48:00,
2013-03-21 23:03:00,27.9,13.0,29.77,NNE,22,2.7,-999.0,53,-99.99,,,0.00,Acu-Link.com,2013-03-22 03:03:00,
2013-03-21 23:19:00,27.7,13.3,29.78,NNW,337,2.2,-999.0,54,-99.99,,,0.00,Acu-Link.com,2013-03-22 03:19:00,
2013-03-21 23:34:00,27.1,13.1,29.78,SW,225,2.7,-999.0,55,-99.99,,,0.00,Acu-Link.com,2013-03-22 03:34:00,
2013-03-21 23:49:00,27.0,13.0,29.78,North,0,1.7,-999.0,55,-99.99,,,0.00,Acu-Link.com,2013-03-22 03:49:00,